FW8264 Weather Reports


Display with metric or nautical units.
time (UTC)temp
F
wind
direction
speed
MPH
gust
MPH
rain 1hr
in
rain 24hr
in
rain mn
in
humidity
%
barometer
mb
20260906133105 69 0 0.0 1.0 0.00 0.01 0.01 88 1020.0
20260906131602 69 153 0.0 1.0 0.00 0.01 0.01 90 1019.9
20260906130059 67 113 0.0 2.0 0.00 0.01 0.01 92 1019.6
20260906124553 66 96 0.0 2.0 0.00 0.01 0.01 95 1019.5
20260906123104 65 0 0.0 1.0 0.00 0.01 0.01 96 1019.0
20260906121556 63 63 0.0 3.0 0.00 0.01 0.01 96 1019.2
20260906120140 63 15 0.0 2.0 0.00 0.01 0.01 96 1019.0
20260906114607 63 44 0.0 1.0 0.00 0.01 0.01 96 1018.7
20260906113058 63 0 0.0 2.0 0.00 0.01 0.01 96 1018.5
20260906111603 63 0 0.0 2.0 0.01 0.01 0.01 96 1018.2
20260906110056 63 0 0.0 2.0 0.01 0.01 0.01 96 1018.2
20260906104600 63 0 0.0 2.0 0.01 0.01 0.01 96 1018.2
20260906103104 63 7 1.0 3.0 0.01 0.01 0.01 96 1018.2
20260906101606 63 7 0.0 1.0 0.00 0.00 0.00 96 1018.2
20260906100104 63 0 0.0 1.0 0.00 0.00 0.00 95 1018.1
20260906094603 63 337 0.0 2.0 0.00 0.00 0.00 95 1017.8
20260906093100 63 335 0.0 2.0 0.00 0.00 0.00 95 1018.0
20260906091601 63 0 0.0 2.0 0.00 0.00 0.00 95 1017.8
20260906090105 63 0 0.0 1.0 0.00 0.00 0.00 95 1017.8
20260906084601 64 2 0.0 4.0 0.00 0.00 0.00 95 1017.8
20260906083103 64 0 0.0 1.0 0.00 0.00 0.00 95 1017.8
20260906081601 64 333 0.0 2.0 0.00 0.00 0.00 95 1017.8
20260906074602 64 0 0.0 1.0 0.00 0.00 0.00 95 1017.8
20260906073101 63 0 0.0 0.0 0.00 0.00 0.00 96 1017.7
20260906071559 63 0 0.0 0.0 0.00 0.00 0.00 96 1017.6
20260906070058 63 0 0.0 0.0 0.00 0.00 0.00 96 1017.6
20260906064600 63 0 0.0 0.0 0.00 0.00 0.00 96 1017.6
20260906063101 63 68 0.0 0.0 0.00 0.00 0.00 96 1017.7
20260906061557 63 0 0.0 0.0 0.00 0.00 0.00 96 1017.7
20260906060109 63 0 0.0 0.0 0.00 0.00 0.00 96 1017.7
20260906054627 63 0 0.0 0.0 0.00 0.00 0.00 96 1017.5
20260906053059 63 0 0.0 1.0 0.00 0.00 0.00 95 1017.6
20260906051602 63 0 0.0 1.0 0.00 0.00 0.00 95 1017.5
20260906050108 63 0 0.0 1.0 0.00 0.00 0.00 95 1017.4
20260906044603 63 0 0.0 1.0 0.00 0.00 0.00 95 1017.4
20260906043101 63 0 0.0 2.0 0.00 0.00 0.00 95 1017.3
20260906041604 63 0 0.0 0.0 0.00 0.00 0.00 95 1017.2
20260906040109 63 0 0.0 0.0 0.00 0.00 0.00 94 1017.1
20260906034557 63 0 0.0 0.0 0.00 0.00 0.00 93 1017.2
20260906033101 64 0 0.0 1.0 0.00 0.00 0.00 94 1017.2
20260906031615 64 0 0.0 1.0 0.00 0.00 0.00 93 1017.2
20260906030059 64 0 0.0 1.0 0.00 0.00 0.00 93 1017.1
20260906024606 65 0 0.0 2.0 0.00 0.00 0.00 93 1017.1
20260906023101 65 117 0.0 1.0 0.00 0.00 0.00 93 1017.1
20260906021615 65 0 0.0 1.0 0.00 0.00 0.00 93 1016.8
20260906014556 66 0 0.0 0.0 0.00 0.00 0.00 92 1016.8
20260906013105 67 0 0.0 0.0 0.00 0.00 0.00 90 1016.7
20260906011604 68 0 0.0 1.0 0.00 0.00 0.00 90 1016.6
20260906010104 69 0 0.0 1.0 0.00 0.00 0.00 89 1016.8
20260906004606 69 0 0.0 1.0 0.00 0.00 0.00 89 1016.8
20260906003059 69 0 0.0 2.0 0.00 0.00 0.00 89 1016.7
20260906001605 69 0 0.0 2.0 0.00 0.00 0.00 89 1016.6
20260906000105 70 123 0.0 6.0 0.00 0.00 0.00 89 1016.8
20260905234605 70 0 0.0 4.0 0.00 0.00 0.00 89 1016.8
20260905233057 70 0 0.0 3.0 0.00 0.00 0.00 89 1016.8
20260905231603 71 0 0.0 3.0 0.00 0.00 0.00 88 1016.7
20260905230103 71 38 0.0 3.0 0.00 0.00 0.00 88 1016.6
20260905224557 71 88 1.0 4.0 0.00 0.00 0.00 88 1016.6
20260905223104 72 0 2.0 6.0 0.00 0.00 0.00 88 1016.5
20260905221603 71 140 1.0 5.0 0.00 0.00 0.00 88 1016.3
20260905220105 72 169 2.0 6.0 0.00 0.00 0.00 88 1016.1
20260905214601 72 57 1.0 4.0 0.00 0.00 0.00 88 1015.9
20260905213101 72 36 0.0 4.0 0.00 0.00 0.00 88 1016.1
20260905211612 72 0 2.0 5.0 0.00 0.00 0.00 88 1016.2
20260905210107 72 196 0.0 4.0 0.00 0.00 0.00 88 1016.2
20260905204600 73 0 0.0 3.0 0.00 0.00 0.00 88 1016.1
20260905203122 74 46 1.0 5.0 0.00 0.00 0.00 87 1016.1
20260905201606 74 91 1.0 5.0 0.00 0.00 0.00 86 1016.1
20260905200116 74 45 1.0 8.0 0.00 0.00 0.00 87 1016.0
20260905194605 74 0 2.0 6.0 0.00 0.00 0.00 86 1016.0
20260905193102 74 86 1.0 3.0 0.00 0.00 0.00 88 1016.0
20260905191554 73 11 1.0 4.0 0.00 0.00 0.00 89 1016.0
20260905190106 74 0 2.0 5.0 0.00 0.00 0.00 87 1016.0
20260905184611 76 220 1.0 5.0 0.00 0.00 0.00 85 1016.0
20260905183059 76 86 2.0 5.0 0.00 0.00 0.00 85 1016.1
20260905181605 76 55 1.0 6.0 0.00 0.00 0.00 86 1015.9
20260905180106 76 288 1.0 5.0 0.00 0.00 0.00 84 1016.0
20260905174601 76 212 1.0 4.0 0.00 0.00 0.00 84 1016.0
20260905173106 76 128 1.0 5.0 0.00 0.00 0.00 83 1016.0
20260905171601 75 305 1.0 2.0 0.00 0.00 0.00 84 1016.0
20260905170126 75 0 0.0 6.0 0.00 0.00 0.00 87 1016.1
20260905164557 75 52 2.0 6.0 0.00 0.00 0.00 86 1016.1
20260905163102 75 169 0.0 6.0 0.00 0.00 0.00 87 1016.1
20260905161559 75 255 0.0 4.0 0.00 0.00 0.00 86 1015.9
20260905160106 75 44 2.0 5.0 0.00 0.00 0.00 87 1016.0
20260905154611 74 0 1.0 5.0 0.00 0.02 0.00 87 1016.0
20260905153058 73 120 0.0 3.0 0.00 0.02 0.00 90 1015.8
20260905151622 73 198 0.0 5.0 0.00 0.02 0.00 91 1015.8
20260905150106 72 0 1.0 5.0 0.00 0.02 0.00 93 1015.7
20260905144603 71 0 0.0 3.0 0.00 0.42 0.00 95 1015.4
20260905143104 71 100 0.0 3.0 0.00 0.42 0.00 96 1015.3
20260905141603 70 117 1.0 6.0 0.00 0.42 0.00 97 1015.1
20260905140105 70 301 0.0 7.0 0.00 0.42 0.00 97 1015.3
20260905134605 69 345 1.0 4.0 0.00 1.02 0.00 97 1015.2